Погода в Элистанжах

Россия / Чеченская Республика     42°58′13″N   46°01′02″E
темп.,
°C
ветер,
м/с
пор.,
м/с
влажн.,
%
обл.,
%
осадки,
мм/ч
давл.,
гПа
погр.,
м
16 апреля, пт
пт1600:00+8ю226490 0.0 101915
03:00+8ю226743 0.0 101913
06:00+8ю21694 0.0 102018
09:00+14ссв22507 0.0 10191041
12:00+17ссв434439 0.0 10181679
15:00+16св434767 0.2 10171577
18:00+13всв116644 0.2 101837
21:00+10ю22723 0.4 101922
17 апреля, сб
сб1700:00+10ю22680 0.0 101923
03:00+10ю33645 0.0 101833
06:00+10ю336159 0.0 101748
09:00+17ссз214195 0.0 1016696
12:00+18сз4347100 0.0 10181159
15:00+17сз4455100 0.0 10181314
18:00+13зюз2566100 0.0 1020495
21:00+10сз2389100 0.1 1022451
18 апреля, вс
вс1800:00+9сз1295100 0.5 1022273
03:00+9с119590 0.6 1021139
06:00+9ссв1197100 0.1 1021182
09:00+11ссв1187100 0.1 1020324
12:00+15ссв336672 0.0 1017908
15:00+16св226736 0.9 1016810
18:00+13сз2282100 0.8 101674
21:00+10зюз2295100 1.6 101950
19 апреля, пн
пн1900:00+11ю2287100 0.8 101837
03:00+11юв1184100 0.8 101711
06:00+12ююв1180100 0.0 101812
09:00+16св226689 0.0 1017505
12:00+20ссв445137 0.0 10161255
15:00+20св3347100 0.1 10141215
18:00+16в116598 0.1 101423
21:00+14ю2274100 0.1 101518
20 апреля, вт
вт2000:00+13ююв2269100 0.0 101334
03:00+14ю2361100 0.0 101138
06:00+16ююв3455100 0.0 100957
09:00+22вюв2342100 0.0 1007264
12:00+26з1432100 0.0 10031210
15:00+26зсз253465 0.0 10021105
18:00+18ю2264100 0.1 100548
21:00+14зсз488287 0.1 1011665